Home > Weather > Lubango > Past weeks

Flag for Angola Past Weather in Lubango, Angola — Yesterday and Last 2 Weeks

Now
72 °F

Passing clouds.


Feels Like: 69 °F
Forecast: 42 / 75 °F
Wind: 7 mph from Southwest

Location: Luanda Airport

Current Time: Jun 26, 2016 at 9:51:29 PM

Latest Report: Jun 26, 2016 at 9:00 PM


Visibility: N/A

Pressure: 29.98 "Hg (24.44 "Hg at 1765m altitude)

Humidity: 88%

Dew Point: 68 °F

Location of LubangoLocation

Past Weather in Lubango — Graph

°F

Lubango Temperature Yesterday

Maximum temperature yesterday: 77 °F (at 10:00 AM)
Minimum temperature yesterday: 68 °F (at 2:00 AM)
Average temperature yesterday: 73 °F

High & Low Weather Summary for the Past Weeks

 TemperatureHumidityPressure
High84 °F (Jun 19, 3:00 PM)94% (Jun 15, 5:00 AM)30.09 "Hg (Jun 15, 5:00 AM)
Low66 °F (Jun 26, 4:00 AM)50% (Jun 25, 11:00 PM)29.83 "Hg (Jun 24, 4:00 PM)
Average74 °F79%29.98 "Hg
* Reported Jun 12 2:00 AM — Jun 26 8:00 PM, Lubango, Weather by CustomWeather, © 2016

Note: Actual official high and low records may vary slightly from our data, if they occured in-between our weather recording intervals... More about our weather records

Advertising

Lubango Weather History for the Previous 24 Hours

Scroll right to see more
 ConditionsComfort  
Time TempWeatherWind HumidityBarometerVisibility
8:00 PM
Sun, Jun 26
72 °FPassing clouds.9 mph88%29.98 "HgN/A
7:00 PM73 °FPassing clouds.9 mph83%29.95 "HgN/A
6:00 PM75 °FClear.9 mph74%29.92 "Hg10 mi
5:00 PM77 °FSunny.16 mph69%29.89 "Hg10 mi
4:00 PM79 °FSunny.12 mph70%29.89 "Hg10 mi
3:00 PM79 °FSunny.12 mph70%29.89 "Hg10 mi
2:00 PM79 °FSunny.9 mph65%29.92 "Hg10 mi
1:00 PM79 °FSunny.9 mph65%29.95 "Hg10 mi
12:00 PM81 °FSunny.5 mph62%29.98 "Hg10 mi
11:00 AM79 °FClear.7 mph65%29.98 "Hg5 mi
10:00 AM75 °FClear.6 mph74%30.01 "Hg5 mi
9:00 AM72 °FPassing clouds.7 mph88%30.01 "Hg2 mi
8:00 AM70 °FFog.3 mph94%30.01 "Hg1 mi
7:00 AM68 °FFog.3 mph94%29.98 "Hg2 mi
6:00 AM68 °FFog.2 mph94%29.98 "Hg2 mi
5:00 AM68 °FClear.No wind94%29.95 "Hg4 mi
4:00 AM66 °FClear.No wind94%29.95 "Hg4 mi
3:00 AM68 °FClear.2 mph94%29.95 "Hg4 mi
2:00 AM68 °FClear.5 mph94%29.95 "Hg4 mi
1:00 AM68 °FClear.5 mph94%29.95 "Hg4 mi
12:00 AM70 °FClear.5 mph94%29.95 "Hg10 mi
11:00 PM
Sat, Jun 25
70 °FClear.5 mph50%29.95 "Hg10 mi
10:00 PM72 °FClear.5 mph88%29.95 "Hg10 mi
9:00 PM72 °FClear.6 mph88%29.92 "Hg10 mi
Weather by CustomWeather, © 2016

See weather overviewHow to use our weather pages